MRN77 EPKK-LZZI

Flight info

Callsign MRN77
Flight time 0h 33m
Altitude 8000
Route BABKO L856 VADEX
Aircraft C208/L-SDFGR/C

Departure

Time 2026-04-14 13:51
Airport Kraków John Paul II International Airport (EPKK)

Arrival

Time 2026-04-14 14:24
Airport Žilina-Dolný Hričov Airport (LZZI)
Time Latitude Longitude Altitude Speed Heading
2026-04-14 13:33 50.07699 19.80162 799 ft 0 kts 348°
2026-04-14 13:44 50.07737 19.80137 799 ft 10 kts 304°
2026-04-14 13:44 50.07729 19.79994 799 ft 14 kts 258°
2026-04-14 13:45 50.07705 19.79804 799 ft 21 kts 259°
2026-04-14 13:45 50.07674 19.79592 799 ft 19 kts 252°
2026-04-14 13:45 50.07647 19.79400 799 ft 17 kts 257°
2026-04-14 13:45 50.07621 19.79209 799 ft 18 kts 258°
2026-04-14 13:46 50.07596 19.79027 799 ft 16 kts 258°
2026-04-14 13:46 50.07569 19.78834 799 ft 23 kts 256°
2026-04-14 13:46 50.07533 19.78573 799 ft 27 kts 258°
2026-04-14 13:46 50.07490 19.78260 798 ft 28 kts 257°
2026-04-14 13:47 50.07452 19.77995 798 ft 25 kts 256°
2026-04-14 13:47 50.07425 19.77809 798 ft 28 kts 255°
2026-04-14 13:47 50.07371 19.77419 798 ft 21 kts 257°
2026-04-14 13:47 50.07348 19.77256 798 ft 12 kts 255°
2026-04-14 13:48 50.07330 19.77135 798 ft 14 kts 258°
2026-04-14 13:48 50.07310 19.76956 798 ft 16 kts 271°
2026-04-14 13:48 50.07373 19.76890 798 ft 10 kts 343°
2026-04-14 13:48 50.07439 19.76858 799 ft 13 kts 349°
2026-04-14 13:49 50.07448 19.76856 799 ft 0 kts 352°
2026-04-14 13:49 50.07467 19.76850 799 ft 9 kts 348°
2026-04-14 13:49 50.07552 19.76920 801 ft 23 kts 75°
2026-04-14 13:50 50.07611 19.77307 799 ft 60 kts 76°
2026-04-14 13:50 50.07722 19.78145 874 ft 92 kts 79°
2026-04-14 13:50 50.07847 19.79238 1047 ft 111 kts 77°
2026-04-14 13:50 50.08016 19.80468 1262 ft 121 kts 77°
2026-04-14 13:51 50.08184 19.81834 1405 ft 134 kts 78°
2026-04-14 13:51 50.08383 19.83286 1635 ft 139 kts 77°
2026-04-14 13:51 50.08604 19.84773 1841 ft 142 kts 78°
2026-04-14 13:51 50.08817 19.86282 2037 ft 143 kts 78°
2026-04-14 13:52 50.09032 19.87792 2233 ft 143 kts 78°
2026-04-14 13:52 50.09243 19.89308 2436 ft 143 kts 78°
2026-04-14 13:52 50.09451 19.90823 2643 ft 143 kts 78°
2026-04-14 13:52 50.09664 19.92345 2855 ft 144 kts 78°
2026-04-14 13:53 50.09875 19.93882 3071 ft 146 kts 79°
2026-04-14 13:53 50.10071 19.95439 3273 ft 147 kts 84°
2026-04-14 13:53 50.09930 19.97025 3486 ft 148 kts 112°
2026-04-14 13:53 50.09574 19.97934 3616 ft 149 kts 130°
2026-04-14 13:54 50.08740 19.98887 3816 ft 150 kts 156°
2026-04-14 13:54 50.07729 19.99302 4012 ft 151 kts 169°
2026-04-14 13:54 50.06699 19.99616 4215 ft 151 kts 169°
2026-04-14 13:54 50.05669 19.99941 4416 ft 151 kts 169°
2026-04-14 13:55 50.04635 20.00216 4628 ft 151 kts 180°
2026-04-14 13:55 50.03651 19.99750 4833 ft 150 kts 215°
2026-04-14 13:55 50.02900 19.98639 5038 ft 149 kts 231°
2026-04-14 13:55 50.02255 19.97374 5235 ft 149 kts 232°
2026-04-14 13:56 50.01612 19.96120 5434 ft 148 kts 232°
2026-04-14 13:56 50.00970 19.94878 5635 ft 147 kts 232°
2026-04-14 13:56 50.00331 19.93644 5839 ft 146 kts 232°
2026-04-14 13:56 49.99692 19.92412 6053 ft 147 kts 232°
2026-04-14 13:57 49.99051 19.91181 6257 ft 146 kts 232°
2026-04-14 13:57 49.98412 19.89952 6462 ft 146 kts 231°
2026-04-14 13:57 49.97773 19.88722 6669 ft 146 kts 231°
2026-04-14 13:57 49.97130 19.87491 6861 ft 146 kts 231°
2026-04-14 13:58 49.96491 19.86266 7056 ft 146 kts 231°
2026-04-14 13:58 49.95852 19.85037 7254 ft 146 kts 231°
2026-04-14 13:58 49.95213 19.83811 7448 ft 146 kts 231°
2026-04-14 13:58 49.94573 19.82590 7643 ft 145 kts 231°
2026-04-14 13:59 49.93936 19.81371 7854 ft 145 kts 231°
2026-04-14 13:59 49.93291 19.80137 8007 ft 150 kts 231°
2026-04-14 13:59 49.92621 19.78849 8081 ft 157 kts 231°
2026-04-14 13:59 49.91922 19.77509 8099 ft 163 kts 231°
2026-04-14 14:00 49.91195 19.76114 8078 ft 169 kts 231°
2026-04-14 14:00 49.90443 19.74677 8017 ft 174 kts 231°
2026-04-14 14:00 49.89677 19.73213 7985 ft 175 kts 231°
2026-04-14 14:00 49.88911 19.71743 7964 ft 175 kts 231°
2026-04-14 14:01 49.88137 19.70291 7960 ft 174 kts 227°
2026-04-14 14:01 49.87192 19.69139 7959 ft 174 kts 211°
2026-04-14 14:01 49.86129 19.68246 7958 ft 174 kts 210°
2026-04-14 14:01 49.85073 19.67345 7953 ft 173 kts 210°
2026-04-14 14:02 49.84023 19.66439 7951 ft 173 kts 210°
2026-04-14 14:02 49.82971 19.65534 7960 ft 173 kts 210°
2026-04-14 14:02 49.81915 19.64624 7963 ft 174 kts 210°
2026-04-14 14:02 49.80854 19.63704 7950 ft 175 kts 210°
2026-04-14 14:03 49.79796 19.62791 7949 ft 174 kts 210°
2026-04-14 14:03 49.78739 19.61880 7951 ft 174 kts 210°
2026-04-14 14:03 49.77685 19.60974 7949 ft 172 kts 210°
2026-04-14 14:03 49.76642 19.60079 7952 ft 171 kts 210°
2026-04-14 14:04 49.75592 19.59180 7946 ft 172 kts 210°
2026-04-14 14:04 49.74554 19.58288 7946 ft 170 kts 210°
2026-04-14 14:04 49.73525 19.57402 7948 ft 169 kts 210°
2026-04-14 14:04 49.72501 19.56526 7941 ft 167 kts 209°
2026-04-14 14:05 49.71486 19.55661 7939 ft 166 kts 210°
2026-04-14 14:05 49.70466 19.54786 7938 ft 165 kts 210°
2026-04-14 14:05 49.69462 19.53928 7947 ft 165 kts 210°
2026-04-14 14:05 49.68458 19.53064 7950 ft 165 kts 210°
2026-04-14 14:06 49.67453 19.52204 7940 ft 165 kts 210°
2026-04-14 14:06 49.66451 19.51345 7942 ft 165 kts 210°
2026-04-14 14:06 49.65443 19.50482 7946 ft 166 kts 210°
2026-04-14 14:06 49.64433 19.49616 7951 ft 167 kts 210°
2026-04-14 14:07 49.63418 19.48751 7946 ft 167 kts 209°
2026-04-14 14:07 49.62401 19.47885 7943 ft 167 kts 210°
2026-04-14 14:07 49.61402 19.46983 7951 ft 167 kts 215°
2026-04-14 14:07 49.60528 19.45793 7948 ft 168 kts 225°
2026-04-14 14:08 49.59726 19.44482 7941 ft 168 kts 227°
2026-04-14 14:08 49.58937 19.43158 7932 ft 168 kts 227°
2026-04-14 14:08 49.58152 19.41830 7940 ft 167 kts 227°
2026-04-14 14:08 49.57366 19.40513 7942 ft 167 kts 226°
2026-04-14 14:09 49.56576 19.39195 7949 ft 168 kts 226°
2026-04-14 14:09 49.55780 19.37880 7938 ft 168 kts 226°
2026-04-14 14:09 49.54985 19.36574 7941 ft 167 kts 226°
2026-04-14 14:09 49.54186 19.35271 7935 ft 167 kts 226°
2026-04-14 14:10 49.53385 19.33965 7932 ft 169 kts 226°
2026-04-14 14:10 49.52578 19.32650 7932 ft 169 kts 226°
2026-04-14 14:10 49.51770 19.31330 7946 ft 170 kts 225°
2026-04-14 14:10 49.50954 19.29999 7949 ft 172 kts 226°
2026-04-14 14:11 49.50133 19.28658 7948 ft 173 kts 226°
2026-04-14 14:11 49.49298 19.27320 7941 ft 173 kts 225°
2026-04-14 14:11 49.48456 19.25994 7938 ft 173 kts 225°
2026-04-14 14:11 49.47622 19.24663 7937 ft 173 kts 225°
2026-04-14 14:12 49.46793 19.23330 7936 ft 171 kts 225°
2026-04-14 14:12 49.45979 19.22018 7938 ft 169 kts 225°
2026-04-14 14:12 49.45172 19.20710 7939 ft 168 kts 226°
2026-04-14 14:12 49.44367 19.19405 7941 ft 168 kts 225°
2026-04-14 14:13 49.43563 19.18104 7939 ft 168 kts 225°
2026-04-14 14:13 49.42762 19.16807 7938 ft 167 kts 226°
2026-04-14 14:13 49.41960 19.15512 7937 ft 168 kts 225°
2026-04-14 14:13 49.41224 19.14320 7917 ft 166 kts 226°
2026-04-14 14:14 49.40435 19.13043 7932 ft 165 kts 225°
2026-04-14 14:14 49.39643 19.11761 7952 ft 167 kts 225°
2026-04-14 14:14 49.38837 19.10461 7960 ft 169 kts 225°
2026-04-14 14:14 49.38021 19.09140 7969 ft 172 kts 225°
2026-04-14 14:15 49.37184 19.07801 7973 ft 176 kts 226°
2026-04-14 14:15 49.36341 19.06426 7954 ft 177 kts 226°
2026-04-14 14:15 49.35492 19.05054 7943 ft 177 kts 225°
2026-04-14 14:15 49.34645 19.03688 7929 ft 175 kts 225°
2026-04-14 14:16 49.33810 19.02341 7917 ft 173 kts 225°
2026-04-14 14:16 49.32983 19.01009 7843 ft 174 kts 225°
2026-04-14 14:16 49.32144 18.99662 7624 ft 173 kts 225°
2026-04-14 14:17 49.30503 18.97028 7189 ft 170 kts 225°
2026-04-14 14:17 49.29706 18.95696 6968 ft 170 kts 233°
2026-04-14 14:17 49.29400 18.93950 6764 ft 173 kts 261°
2026-04-14 14:17 49.29148 18.92155 6532 ft 172 kts 251°
2026-04-14 14:18 49.28832 18.90441 6300 ft 162 kts 253°
2026-04-14 14:18 49.28579 18.88791 6068 ft 157 kts 255°
2026-04-14 14:18 49.28349 18.87149 5845 ft 154 kts 255°
2026-04-14 14:18 49.28127 18.85548 5603 ft 153 kts 255°
2026-04-14 14:19 49.27897 18.83951 5389 ft 154 kts 255°
2026-04-14 14:19 49.27663 18.82354 5152 ft 154 kts 254°
2026-04-14 14:19 49.27426 18.80758 4925 ft 153 kts 254°
2026-04-14 14:19 49.27193 18.79161 4695 ft 154 kts 255°
2026-04-14 14:20 49.26966 18.77558 4479 ft 154 kts 255°
2026-04-14 14:20 49.26729 18.75978 4195 ft 148 kts 254°
2026-04-14 14:20 49.26545 18.74484 3907 ft 139 kts 261°
2026-04-14 14:20 49.26546 18.73114 3589 ft 124 kts 268°
2026-04-14 14:21 49.26461 18.71784 3055 ft 125 kts 256°
2026-04-14 14:21 49.26230 18.70549 2742 ft 116 kts 247°
2026-04-14 14:21 49.25882 18.69463 2436 ft 109 kts 243°
2026-04-14 14:21 49.25546 18.68449 2175 ft 104 kts 246°
2026-04-14 14:22 49.25242 18.67507 2038 ft 89 kts 246°
2026-04-14 14:22 49.25004 18.66690 1896 ft 86 kts 249°
2026-04-14 14:22 49.24737 18.65855 1773 ft 84 kts 249°
2026-04-14 14:22 49.24483 18.65053 1647 ft 84 kts 248°
2026-04-14 14:23 49.24236 18.64238 1515 ft 86 kts 246°
2026-04-14 14:23 49.23982 18.63428 1315 ft 83 kts 246°
2026-04-14 14:23 49.23759 18.62682 1165 ft 70 kts 243°
2026-04-14 14:23 49.23552 18.62036 1042 ft 68 kts 243°
2026-04-14 14:24 49.23380 18.61477 1022 ft 40 kts 245°
2026-04-14 14:24 49.23318 18.61267 1024 ft 11 kts 250°
2026-04-14 14:24 49.23307 18.61251 1022 ft 8 kts 73°
2026-04-14 14:24 49.23340 18.61353 1020 ft 12 kts 64°
2026-04-14 14:25 49.23325 18.61461 1022 ft 10 kts 159°
2026-04-14 14:25 49.23288 18.61488 1021 ft 7 kts 156°
2026-04-14 14:25 49.23258 18.61554 1021 ft 9 kts 72°
2026-04-14 14:25 49.23284 18.61640 1021 ft 7 kts 95°
2026-04-14 14:26 49.23272 18.61644 1021 ft 3 kts 244°
2026-04-14 14:26 49.23271 18.61636 1021 ft 0 kts 278°